Year,Month,Day,Hour,Minute,Value (Times are PST for temperature in C)
2007,04,20,00,00,4.40
2007,04,20,00,01,4.30
2007,04,20,00,02,4.30
2007,04,20,00,03,4.30
2007,04,20,00,04,4.30
2007,04,20,00,05,4.30
2007,04,20,00,06,4.30
2007,04,20,00,07,4.30
2007,04,20,00,08,4.30
2007,04,20,00,09,4.30
2007,04,20,00,10,4.20
2007,04,20,00,11,4.20
2007,04,20,00,12,4.10
2007,04,20,00,13,4.10
2007,04,20,00,14,4.10
2007,04,20,00,15,4.00
2007,04,20,00,16,4.00
2007,04,20,00,17,4.00
2007,04,20,00,18,3.90
2007,04,20,00,19,3.90
2007,04,20,00,20,3.90
2007,04,20,00,21,3.90
2007,04,20,00,22,3.80
2007,04,20,00,23,3.80
2007,04,20,00,24,3.80
2007,04,20,00,25,3.80
2007,04,20,00,26,3.80
2007,04,20,00,27,3.70
2007,04,20,00,28,3.70
2007,04,20,00,29,3.80
2007,04,20,00,30,3.80
2007,04,20,00,31,3.80
2007,04,20,00,32,3.80
2007,04,20,00,33,3.80
2007,04,20,00,34,3.80
2007,04,20,00,35,3.80
2007,04,20,00,36,3.80
2007,04,20,00,37,3.80
2007,04,20,00,38,3.80
2007,04,20,00,39,3.80
2007,04,20,00,40,3.80
2007,04,20,00,41,3.70
2007,04,20,00,42,3.70
2007,04,20,00,43,3.70
2007,04,20,00,44,3.70
2007,04,20,00,45,3.70
2007,04,20,00,46,3.70
2007,04,20,00,47,3.60
2007,04,20,00,48,3.60
2007,04,20,00,49,3.50
2007,04,20,00,50,3.50
2007,04,20,00,51,3.40
2007,04,20,00,52,3.40
2007,04,20,00,53,3.30
2007,04,20,00,54,3.30
2007,04,20,00,55,3.30
2007,04,20,00,56,3.30
2007,04,20,00,57,3.20
2007,04,20,00,58,3.20
2007,04,20,00,59,3.20
2007,04,20,01,00,3.20
2007,04,20,01,01,3.20
2007,04,20,01,02,3.10
2007,04,20,01,03,3.10
2007,04,20,01,04,3.10
2007,04,20,01,05,3.10
2007,04,20,01,06,3.00
2007,04,20,01,07,3.00
2007,04,20,01,08,3.00
2007,04,20,01,09,2.90
2007,04,20,01,10,2.90
2007,04,20,01,11,2.90
2007,04,20,01,12,2.80
2007,04,20,01,13,2.80
2007,04,20,01,14,2.70
2007,04,20,01,15,2.70
2007,04,20,01,16,2.70
2007,04,20,01,17,2.70
2007,04,20,01,18,2.70
2007,04,20,01,19,2.70
2007,04,20,01,20,2.70
2007,04,20,01,21,2.70
2007,04,20,01,22,2.70
2007,04,20,01,23,2.70
2007,04,20,01,24,2.70
2007,04,20,01,25,2.70
2007,04,20,01,26,2.70
2007,04,20,01,27,2.70
2007,04,20,01,28,2.70
2007,04,20,01,29,2.70
2007,04,20,01,30,2.70
2007,04,20,01,31,2.70
2007,04,20,01,32,2.60
2007,04,20,01,33,2.60
2007,04,20,01,34,2.50
2007,04,20,01,35,2.50
2007,04,20,01,36,2.50
2007,04,20,01,37,2.40
2007,04,20,01,38,2.40
2007,04,20,01,39,2.30
2007,04,20,01,40,2.30
2007,04,20,01,41,2.30
2007,04,20,01,42,2.30
2007,04,20,01,43,2.30
2007,04,20,01,44,2.30
2007,04,20,01,45,2.30
2007,04,20,01,46,2.30
2007,04,20,01,47,2.30
2007,04,20,01,48,2.30
2007,04,20,01,49,2.30
2007,04,20,01,50,2.20
2007,04,20,01,51,2.20
2007,04,20,01,52,2.20
2007,04,20,01,53,2.20
2007,04,20,01,54,2.20
2007,04,20,01,55,2.20
2007,04,20,01,56,2.30
2007,04,20,01,57,2.30
2007,04,20,01,58,2.30
2007,04,20,01,59,2.30
2007,04,20,02,00,2.30
2007,04,20,02,01,2.40
2007,04,20,02,02,2.40
2007,04,20,02,03,2.40
2007,04,20,02,04,2.40
2007,04,20,02,05,2.40
2007,04,20,02,06,2.40
2007,04,20,02,07,2.40
2007,04,20,02,08,2.40
2007,04,20,02,09,2.40
2007,04,20,02,10,2.40
2007,04,20,02,11,2.40
2007,04,20,02,12,2.40
2007,04,20,02,13,2.40
2007,04,20,02,14,2.40
2007,04,20,02,15,2.40
2007,04,20,02,16,2.40
2007,04,20,02,17,2.40
2007,04,20,02,18,2.40
2007,04,20,02,19,2.40
2007,04,20,02,20,2.40
2007,04,20,02,21,2.50
2007,04,20,02,22,2.60
2007,04,20,02,23,2.60
2007,04,20,02,24,2.70
2007,04,20,02,25,2.70
2007,04,20,02,26,2.70
2007,04,20,02,27,2.70
2007,04,20,02,28,2.70
2007,04,20,02,29,2.80
2007,04,20,02,30,2.70
2007,04,20,02,31,2.70
2007,04,20,02,32,2.70
2007,04,20,02,33,2.70
2007,04,20,02,34,2.70
2007,04,20,02,35,2.70
2007,04,20,02,36,2.70
2007,04,20,02,37,2.60
2007,04,20,02,38,2.60
2007,04,20,02,39,2.60
2007,04,20,02,40,2.60
2007,04,20,02,41,2.50
2007,04,20,02,42,2.50
2007,04,20,02,43,2.60
2007,04,20,02,44,2.60
2007,04,20,02,45,2.60
2007,04,20,02,46,2.60
2007,04,20,02,47,2.60
2007,04,20,02,48,2.70
2007,04,20,02,49,2.70
2007,04,20,02,50,2.70
2007,04,20,02,51,2.70
2007,04,20,02,52,2.80
2007,04,20,02,53,2.80
2007,04,20,02,54,2.80
2007,04,20,02,55,2.80
2007,04,20,02,56,2.70
2007,04,20,02,57,2.70
2007,04,20,02,58,2.70
2007,04,20,02,59,2.60
2007,04,20,03,00,2.60
2007,04,20,03,01,2.50
2007,04,20,03,02,2.50
2007,04,20,03,03,2.40
2007,04,20,03,04,2.40
2007,04,20,03,05,2.40
2007,04,20,03,06,2.30
2007,04,20,03,07,2.30
2007,04,20,03,08,2.30
2007,04,20,03,09,2.30
2007,04,20,03,10,2.30
2007,04,20,03,11,2.30
2007,04,20,03,12,2.30
2007,04,20,03,13,2.20
2007,04,20,03,14,2.20
2007,04,20,03,15,2.20
2007,04,20,03,16,2.10
2007,04,20,03,17,2.10
2007,04,20,03,18,2.00
2007,04,20,03,19,2.00
2007,04,20,03,20,1.90
2007,04,20,03,21,1.90
2007,04,20,03,22,1.90
2007,04,20,03,23,1.90
2007,04,20,03,24,1.90
2007,04,20,03,25,1.80
2007,04,20,03,26,1.90
2007,04,20,03,27,1.90
2007,04,20,03,28,1.90
2007,04,20,03,29,2.00
2007,04,20,03,30,2.00
2007,04,20,03,31,2.10
2007,04,20,03,32,2.10
2007,04,20,03,33,2.10
2007,04,20,03,34,2.20
2007,04,20,03,35,2.20
2007,04,20,03,36,2.20
2007,04,20,03,37,2.20
2007,04,20,03,38,2.20
2007,04,20,03,39,2.30
2007,04,20,03,40,2.30
2007,04,20,03,41,2.30
2007,04,20,03,42,2.30
2007,04,20,03,43,2.20
2007,04,20,03,44,2.20
2007,04,20,03,45,2.20
2007,04,20,03,46,2.20
2007,04,20,03,47,2.20
2007,04,20,03,48,2.20
2007,04,20,03,49,2.20
2007,04,20,03,50,2.20
2007,04,20,03,51,2.20
2007,04,20,03,52,2.20
2007,04,20,03,53,2.20
2007,04,20,03,54,2.20
2007,04,20,03,55,2.20
2007,04,20,03,56,2.20
2007,04,20,03,57,2.20
2007,04,20,03,58,2.20
2007,04,20,03,59,2.20
2007,04,20,04,00,2.10
2007,04,20,04,01,2.10
2007,04,20,04,02,2.10
2007,04,20,04,03,2.00
2007,04,20,04,04,2.00
2007,04,20,04,05,1.90
2007,04,20,04,06,1.90
2007,04,20,04,07,1.90
2007,04,20,04,08,1.90
2007,04,20,04,09,2.00
2007,04,20,04,10,2.00
2007,04,20,04,11,2.00
2007,04,20,04,12,1.90
2007,04,20,04,13,1.90
2007,04,20,04,14,1.90
2007,04,20,04,15,1.90
2007,04,20,04,16,1.90
2007,04,20,04,17,1.90
2007,04,20,04,18,1.90
2007,04,20,04,19,1.90
2007,04,20,04,20,1.90
2007,04,20,04,21,1.90
2007,04,20,04,22,1.90
2007,04,20,04,23,1.90
2007,04,20,04,24,1.80
2007,04,20,04,25,1.80
2007,04,20,04,26,1.80
2007,04,20,04,27,1.80
2007,04,20,04,28,1.80
2007,04,20,04,29,1.80
2007,04,20,04,30,1.80
2007,04,20,04,31,1.90
2007,04,20,04,32,1.90
2007,04,20,04,33,1.90
2007,04,20,04,34,1.90
2007,04,20,04,35,2.00
2007,04,20,04,36,2.00
2007,04,20,04,37,1.90
2007,04,20,04,38,1.90
2007,04,20,04,39,1.90
2007,04,20,04,40,1.90
2007,04,20,04,41,1.90
2007,04,20,04,42,1.90
2007,04,20,04,43,1.90
2007,04,20,04,44,1.90
2007,04,20,04,45,1.90
2007,04,20,04,46,1.90
2007,04,20,04,47,1.90
2007,04,20,04,48,1.90
2007,04,20,04,49,2.00
2007,04,20,04,50,2.00
2007,04,20,04,51,2.00
2007,04,20,04,52,2.00
2007,04,20,04,53,2.10
2007,04,20,04,54,2.10
2007,04,20,04,55,2.10
2007,04,20,04,56,2.10
2007,04,20,04,57,2.10
2007,04,20,04,58,2.10
2007,04,20,04,59,2.10
2007,04,20,05,00,2.20
2007,04,20,05,01,2.20
2007,04,20,05,02,2.20
2007,04,20,05,03,2.10
2007,04,20,05,04,2.10
2007,04,20,05,05,2.20
2007,04,20,05,06,2.20
2007,04,20,05,07,2.20
2007,04,20,05,08,2.20
2007,04,20,05,09,2.20
2007,04,20,05,10,2.30
2007,04,20,05,11,2.30
2007,04,20,05,12,2.30
2007,04,20,05,13,2.20
2007,04,20,05,14,2.20
2007,04,20,05,15,2.20
2007,04,20,05,16,2.10
2007,04,20,05,17,2.10
2007,04,20,05,18,2.10
2007,04,20,05,19,2.10
2007,04,20,05,20,2.10
2007,04,20,05,21,2.10
2007,04,20,05,22,2.00
2007,04,20,05,23,2.00
2007,04,20,05,24,2.00
2007,04,20,05,25,2.00
2007,04,20,05,26,2.00
2007,04,20,05,27,1.90
2007,04,20,05,28,1.90
2007,04,20,05,29,1.90
2007,04,20,05,30,2.00
2007,04,20,05,31,2.00
2007,04,20,05,32,2.00
2007,04,20,05,33,2.00
2007,04,20,05,34,2.00
2007,04,20,05,35,2.00
2007,04,20,05,36,2.10
2007,04,20,05,37,2.10
2007,04,20,05,38,2.10
2007,04,20,05,39,2.20
2007,04,20,05,40,2.20
2007,04,20,05,41,2.20
2007,04,20,05,42,2.20
2007,04,20,05,43,2.20
2007,04,20,05,44,2.20
2007,04,20,05,45,2.20
2007,04,20,05,46,2.30
2007,04,20,05,47,2.20
2007,04,20,05,48,2.20
2007,04,20,05,49,2.20
2007,04,20,05,50,2.20
2007,04,20,05,51,2.20
2007,04,20,05,52,2.20
2007,04,20,05,53,2.20
2007,04,20,05,54,2.20
2007,04,20,05,55,2.20
2007,04,20,05,56,2.20
2007,04,20,05,57,2.20
2007,04,20,05,58,2.30
2007,04,20,05,59,2.20
2007,04,20,06,00,2.20
2007,04,20,06,01,2.20
2007,04,20,06,02,2.20
2007,04,20,06,03,2.30
2007,04,20,06,04,2.30
2007,04,20,06,05,2.30
2007,04,20,06,06,2.30
2007,04,20,06,07,2.30
2007,04,20,06,08,2.30
2007,04,20,06,09,2.30
2007,04,20,06,10,2.30
2007,04,20,06,11,2.30
2007,04,20,06,12,2.30
2007,04,20,06,13,2.30
2007,04,20,06,14,2.30
2007,04,20,06,15,2.40
2007,04,20,06,16,2.40
2007,04,20,06,17,2.40
2007,04,20,06,18,2.40
2007,04,20,06,19,2.40
2007,04,20,06,20,2.40
2007,04,20,06,21,2.40
2007,04,20,06,22,2.50
2007,04,20,06,23,2.50
2007,04,20,06,24,2.50
2007,04,20,06,25,2.50
2007,04,20,06,26,2.50
2007,04,20,06,27,2.50
2007,04,20,06,28,2.50
2007,04,20,06,29,2.50
2007,04,20,06,30,2.50
2007,04,20,06,31,2.50
2007,04,20,06,32,2.60
2007,04,20,06,33,2.60
2007,04,20,06,34,2.60
2007,04,20,06,35,2.60
2007,04,20,06,36,2.60
2007,04,20,06,37,2.60
2007,04,20,06,38,2.60
2007,04,20,06,39,2.60
2007,04,20,06,40,2.60
2007,04,20,06,41,2.50
2007,04,20,06,42,2.50
2007,04,20,06,43,2.50
2007,04,20,06,44,2.50
2007,04,20,06,45,2.50
2007,04,20,06,46,2.50
2007,04,20,06,47,2.50
2007,04,20,06,48,2.50
2007,04,20,06,49,2.50
2007,04,20,06,50,2.50
2007,04,20,06,51,2.50
2007,04,20,06,52,2.50
2007,04,20,06,53,2.50
2007,04,20,06,54,2.50
2007,04,20,06,55,2.60
2007,04,20,06,56,2.60
2007,04,20,06,57,2.60
2007,04,20,06,58,2.60
2007,04,20,06,59,2.70
2007,04,20,07,00,2.70
2007,04,20,07,01,2.70
2007,04,20,07,02,2.70
2007,04,20,07,03,2.70
2007,04,20,07,04,2.70
2007,04,20,07,05,2.70
2007,04,20,07,06,2.80
2007,04,20,07,07,2.80
2007,04,20,07,08,2.80
2007,04,20,07,09,2.80
2007,04,20,07,10,2.80
2007,04,20,07,11,2.80
2007,04,20,07,12,2.90
2007,04,20,07,13,2.90
2007,04,20,07,14,2.90
2007,04,20,07,15,3.00
2007,04,20,07,16,3.00
2007,04,20,07,17,3.00
2007,04,20,07,18,3.10
2007,04,20,07,19,3.10
2007,04,20,07,20,3.20
2007,04,20,07,21,3.20
2007,04,20,07,22,3.20
2007,04,20,07,23,3.30
2007,04,20,07,24,3.30
2007,04,20,07,25,3.30
2007,04,20,07,26,3.30
2007,04,20,07,27,3.40
2007,04,20,07,28,3.40
2007,04,20,07,29,3.40
2007,04,20,07,30,3.50
2007,04,20,07,31,3.50
2007,04,20,07,32,3.50
2007,04,20,07,33,3.60
2007,04,20,07,34,3.60
2007,04,20,07,35,3.60
2007,04,20,07,36,3.60
2007,04,20,07,37,3.70
2007,04,20,07,38,3.70
2007,04,20,07,39,3.70
2007,04,20,07,40,3.70
2007,04,20,07,41,3.70
2007,04,20,07,42,3.80
2007,04,20,07,43,3.80
2007,04,20,07,44,3.80
2007,04,20,07,45,3.80
2007,04,20,07,46,3.80
2007,04,20,07,47,3.90
2007,04,20,07,48,3.90
2007,04,20,07,49,3.90
2007,04,20,07,50,3.90
2007,04,20,07,51,4.00
2007,04,20,07,52,4.00
2007,04,20,07,53,4.00
2007,04,20,07,54,4.00
2007,04,20,07,55,4.00
2007,04,20,07,56,4.10
2007,04,20,07,57,4.10
2007,04,20,07,58,4.10
2007,04,20,07,59,4.10
2007,04,20,08,00,4.10
2007,04,20,08,01,4.20
2007,04,20,08,02,4.20
2007,04,20,08,03,4.20
2007,04,20,08,04,4.20
2007,04,20,08,05,4.30
2007,04,20,08,06,4.30
2007,04,20,08,07,4.30
2007,04,20,08,08,4.40
2007,04,20,08,09,4.40
2007,04,20,08,10,4.50
2007,04,20,08,11,4.50
2007,04,20,08,12,4.60
2007,04,20,08,13,4.60
2007,04,20,08,14,4.60
2007,04,20,08,15,4.60
2007,04,20,08,16,4.70
2007,04,20,08,17,4.70
2007,04,20,08,18,4.70
2007,04,20,08,19,4.70
2007,04,20,08,20,4.70
2007,04,20,08,21,4.70
2007,04,20,08,22,4.80
2007,04,20,08,23,4.80
2007,04,20,08,24,4.80
2007,04,20,08,25,4.80
2007,04,20,08,26,4.80
2007,04,20,08,27,4.80
2007,04,20,08,28,4.80
2007,04,20,08,29,4.90
2007,04,20,08,30,4.90
2007,04,20,08,31,4.90
2007,04,20,08,32,5.00
2007,04,20,08,33,5.00
2007,04,20,08,34,5.00
2007,04,20,08,35,5.10
2007,04,20,08,36,5.10
2007,04,20,08,37,5.10
2007,04,20,08,38,5.10
2007,04,20,08,39,5.20
2007,04,20,08,40,5.20
2007,04,20,08,41,5.20
2007,04,20,08,42,5.30
2007,04,20,08,43,5.30
2007,04,20,08,44,5.30
2007,04,20,08,45,5.40
2007,04,20,08,46,5.40
2007,04,20,08,47,5.50
2007,04,20,08,48,5.50
2007,04,20,08,49,5.60
2007,04,20,08,50,5.70
2007,04,20,08,51,5.70
2007,04,20,08,52,5.80
2007,04,20,08,53,5.80
2007,04,20,08,54,5.90
2007,04,20,08,55,5.90
2007,04,20,08,56,6.00
2007,04,20,08,57,6.00
2007,04,20,08,58,6.10
2007,04,20,08,59,6.10
2007,04,20,09,00,6.10
2007,04,20,09,01,6.20
2007,04,20,09,02,6.20
2007,04,20,09,03,6.30
2007,04,20,09,04,6.30
2007,04,20,09,05,6.40
2007,04,20,09,06,6.40
2007,04,20,09,07,6.50
2007,04,20,09,08,6.50
2007,04,20,09,09,6.60
2007,04,20,09,10,6.60
2007,04,20,09,11,6.70
2007,04,20,09,12,6.70
2007,04,20,09,13,6.70
2007,04,20,09,14,6.70
2007,04,20,09,15,6.70
2007,04,20,09,16,6.70
2007,04,20,09,17,6.80
2007,04,20,09,18,6.80
2007,04,20,09,19,6.90
2007,04,20,09,20,6.90
2007,04,20,09,21,6.90
2007,04,20,09,22,7.00
2007,04,20,09,23,7.10
2007,04,20,09,24,7.10
2007,04,20,09,25,7.20
2007,04,20,09,26,7.20
2007,04,20,09,27,7.30
2007,04,20,09,28,7.30
2007,04,20,09,29,7.20
2007,04,20,09,30,7.20
2007,04,20,09,31,7.20
2007,04,20,09,32,7.20
2007,04,20,09,33,7.20
2007,04,20,09,34,7.20
2007,04,20,09,35,7.20
2007,04,20,09,36,7.20
2007,04,20,09,37,7.20
2007,04,20,09,38,7.20
2007,04,20,09,39,7.30
2007,04,20,09,40,7.20
2007,04,20,09,41,7.20
2007,04,20,09,42,7.30
2007,04,20,09,43,7.30
2007,04,20,09,44,7.20
2007,04,20,09,45,7.20
2007,04,20,09,46,7.20
2007,04,20,09,47,7.20
2007,04,20,09,48,7.20
2007,04,20,09,49,7.20
2007,04,20,09,50,7.20
2007,04,20,09,51,7.20
2007,04,20,09,52,7.20
2007,04,20,09,53,7.20
2007,04,20,09,54,7.30
2007,04,20,09,55,7.30
2007,04,20,09,56,7.30
2007,04,20,09,57,7.40
2007,04,20,09,58,7.40
2007,04,20,09,59,7.50
2007,04,20,10,00,7.60
2007,04,20,10,01,7.60
2007,04,20,10,02,7.70
2007,04,20,10,03,7.80
2007,04,20,10,04,7.90
2007,04,20,10,05,7.90
2007,04,20,10,06,7.90
2007,04,20,10,07,8.00
2007,04,20,10,08,8.10
2007,04,20,10,09,8.20
2007,04,20,10,10,8.40
2007,04,20,10,11,8.50
2007,04,20,10,12,8.60
2007,04,20,10,13,8.60
2007,04,20,10,14,8.70
2007,04,20,10,15,8.80
2007,04,20,10,16,8.80
2007,04,20,10,17,8.90
2007,04,20,10,18,8.90
2007,04,20,10,19,9.00
2007,04,20,10,20,9.10
2007,04,20,10,21,9.30
2007,04,20,10,22,9.40
2007,04,20,10,23,9.40
2007,04,20,10,24,9.40
2007,04,20,10,25,9.40
2007,04,20,10,26,9.30
2007,04,20,10,27,9.40
2007,04,20,10,28,9.50
2007,04,20,10,29,9.70
2007,04,20,10,30,10.00
2007,04,20,10,31,10.20
2007,04,20,10,32,10.30
2007,04,20,10,33,10.30
2007,04,20,10,34,10.40
2007,04,20,10,35,10.40
2007,04,20,10,36,10.30
2007,04,20,10,37,10.20
2007,04,20,10,38,10.20
2007,04,20,10,39,10.10
2007,04,20,10,40,9.90
2007,04,20,10,41,9.90
2007,04,20,10,42,9.90
2007,04,20,10,43,9.90
2007,04,20,10,44,9.90
2007,04,20,10,45,10.00
2007,04,20,10,46,10.10
2007,04,20,10,47,10.10
2007,04,20,10,48,10.20
2007,04,20,10,49,10.20
2007,04,20,10,50,10.30
2007,04,20,10,51,10.30
2007,04,20,10,52,10.40
2007,04,20,10,53,10.40
2007,04,20,10,54,10.50
2007,04,20,10,55,10.60
2007,04,20,10,56,10.60
2007,04,20,10,57,10.50
2007,04,20,10,58,10.50
2007,04,20,10,59,10.60
2007,04,20,11,00,10.60
2007,04,20,11,01,10.70
2007,04,20,11,02,10.80
2007,04,20,11,03,10.90
2007,04,20,11,04,11.00
2007,04,20,11,05,11.10
2007,04,20,11,06,11.10
2007,04,20,11,07,11.20
2007,04,20,11,08,11.20
2007,04,20,11,09,11.20
2007,04,20,11,10,11.30
2007,04,20,11,11,11.30
2007,04,20,11,12,11.30
2007,04,20,11,13,11.30
2007,04,20,11,14,11.30
2007,04,20,11,15,11.20
2007,04,20,11,16,11.30
2007,04,20,11,17,11.30
2007,04,20,11,18,11.40
2007,04,20,11,19,11.30
2007,04,20,11,20,11.20
2007,04,20,11,21,11.20
2007,04,20,11,22,11.30
2007,04,20,11,23,11.30
2007,04,20,11,24,11.30
2007,04,20,11,25,11.20
2007,04,20,11,26,11.20
2007,04,20,11,27,11.30
2007,04,20,11,28,11.40
2007,04,20,11,29,11.50
2007,04,20,11,30,11.40
2007,04,20,11,31,11.30
2007,04,20,11,32,11.30
2007,04,20,11,33,11.30
2007,04,20,11,34,11.10
2007,04,20,11,35,11.00
2007,04,20,11,36,11.00
2007,04,20,11,37,11.00
2007,04,20,11,38,10.90
2007,04,20,11,39,11.00
2007,04,20,11,40,11.00
2007,04,20,11,41,10.90
2007,04,20,11,42,11.00
2007,04,20,11,43,11.00
2007,04,20,11,44,11.20
2007,04,20,11,45,11.30
2007,04,20,11,46,11.40
2007,04,20,11,47,11.50
2007,04,20,11,48,11.40
2007,04,20,11,49,11.40
2007,04,20,11,50,11.40
2007,04,20,11,51,11.40
2007,04,20,11,52,11.50
2007,04,20,11,53,11.50
2007,04,20,11,54,11.50
2007,04,20,11,55,11.60
2007,04,20,11,56,11.60
2007,04,20,11,57,11.60
2007,04,20,11,58,11.70
2007,04,20,11,59,11.80
2007,04,20,12,00,11.80
2007,04,20,12,01,11.80
2007,04,20,12,02,11.80
2007,04,20,12,03,11.70
2007,04,20,12,04,11.70
2007,04,20,12,05,11.80
2007,04,20,12,06,11.90
2007,04,20,12,07,11.90
2007,04,20,12,08,11.80
2007,04,20,12,09,11.80
2007,04,20,12,10,11.80
2007,04,20,12,11,11.80
2007,04,20,12,12,11.80
2007,04,20,12,13,11.80
2007,04,20,12,14,11.80
2007,04,20,12,15,11.60
2007,04,20,12,16,11.60
2007,04,20,12,17,11.60
2007,04,20,12,18,11.50
2007,04,20,12,19,11.40
2007,04,20,12,20,11.50
2007,04,20,12,21,11.60
2007,04,20,12,22,11.60
2007,04,20,12,23,11.50
2007,04,20,12,24,11.40
2007,04,20,12,25,11.30
2007,04,20,12,26,11.30
2007,04,20,12,27,11.30
2007,04,20,12,28,11.20
2007,04,20,12,29,11.20
2007,04,20,12,30,11.20
2007,04,20,12,31,11.30
2007,04,20,12,32,11.40
2007,04,20,12,33,11.50
2007,04,20,12,34,11.70
2007,04,20,12,35,11.90
2007,04,20,12,36,12.10
2007,04,20,12,37,12.20
2007,04,20,12,38,12.10
2007,04,20,12,39,11.90
2007,04,20,12,40,11.60
2007,04,20,12,41,11.40
2007,04,20,12,42,11.10
2007,04,20,12,43,11.10
2007,04,20,12,44,11.20
2007,04,20,12,45,11.40
2007,04,20,12,46,11.60
2007,04,20,12,47,11.80
2007,04,20,12,48,11.90
2007,04,20,12,49,11.90
2007,04,20,12,50,12.00
2007,04,20,12,51,12.10
2007,04,20,12,52,12.20
2007,04,20,12,53,12.30
2007,04,20,12,54,12.30
2007,04,20,12,55,12.30
2007,04,20,12,56,12.20
2007,04,20,12,57,12.20
2007,04,20,12,58,12.20
2007,04,20,12,59,12.30
2007,04,20,13,00,12.30
2007,04,20,13,01,12.20
2007,04,20,13,02,12.20
2007,04,20,13,03,12.20
2007,04,20,13,04,12.10
2007,04,20,13,05,12.10
2007,04,20,13,06,12.00
2007,04,20,13,07,11.90
2007,04,20,13,08,11.80
2007,04,20,13,09,11.80
2007,04,20,13,10,11.90
2007,04,20,13,11,11.90
2007,04,20,13,12,11.90
2007,04,20,13,13,11.80
2007,04,20,13,14,11.80
2007,04,20,13,15,11.80
2007,04,20,13,16,11.90
2007,04,20,13,17,11.90
2007,04,20,13,18,11.70
2007,04,20,13,19,11.50
2007,04,20,13,20,11.30
2007,04,20,13,21,11.30
2007,04,20,13,22,11.30
2007,04,20,13,23,11.20
2007,04,20,13,24,11.20
2007,04,20,13,25,11.10
2007,04,20,13,26,11.20
2007,04,20,13,27,11.20
2007,04,20,13,28,11.20
2007,04,20,13,29,11.20
2007,04,20,13,30,11.20
2007,04,20,13,31,11.20
2007,04,20,13,32,11.20
2007,04,20,13,33,11.20
2007,04,20,13,34,11.20
2007,04,20,13,35,11.30
2007,04,20,13,36,11.50
2007,04,20,13,37,11.50
2007,04,20,13,38,11.60
2007,04,20,13,39,11.60
2007,04,20,13,40,11.50
2007,04,20,13,41,11.50
2007,04,20,13,42,11.50
2007,04,20,13,43,11.50
2007,04,20,13,44,11.50
2007,04,20,13,45,11.60
2007,04,20,13,46,11.60
2007,04,20,13,47,11.60
2007,04,20,13,48,11.60
2007,04,20,13,49,11.60
2007,04,20,13,50,11.40
2007,04,20,13,51,11.30
2007,04,20,13,52,11.20
2007,04,20,13,53,11.20
2007,04,20,13,54,11.00
2007,04,20,13,55,11.00
2007,04,20,13,56,11.10
2007,04,20,13,57,11.30
2007,04,20,13,58,11.40
2007,04,20,13,59,11.40
2007,04,20,14,00,11.50
2007,04,20,14,01,11.50
2007,04,20,14,02,11.70
2007,04,20,14,03,11.80
2007,04,20,14,04,11.80
2007,04,20,14,05,11.90
2007,04,20,14,06,12.00
2007,04,20,14,07,12.10
2007,04,20,14,08,12.10
2007,04,20,14,09,12.20
2007,04,20,14,10,12.20
2007,04,20,14,11,12.10
2007,04,20,14,12,12.10
2007,04,20,14,13,12.10
2007,04,20,14,14,12.10
2007,04,20,14,15,12.00
2007,04,20,14,16,11.90
2007,04,20,14,17,11.80
2007,04,20,14,18,11.80
2007,04,20,14,19,11.80
2007,04,20,14,20,11.80
2007,04,20,14,21,11.80
2007,04,20,14,22,11.90
2007,04,20,14,23,11.90
2007,04,20,14,24,11.80
2007,04,20,14,25,11.80
2007,04,20,14,26,11.70
2007,04,20,14,27,11.60
2007,04,20,14,28,11.60
2007,04,20,14,29,11.70
2007,04,20,14,30,11.90
2007,04,20,14,31,11.90
2007,04,20,14,32,11.90
2007,04,20,14,33,11.90
2007,04,20,14,34,11.90
2007,04,20,14,35,11.90
2007,04,20,14,36,11.90
2007,04,20,14,37,11.80
2007,04,20,14,38,11.80
2007,04,20,14,39,11.80
2007,04,20,14,40,11.80
2007,04,20,14,41,11.80
2007,04,20,14,42,11.80
2007,04,20,14,43,11.80
2007,04,20,14,44,11.80
2007,04,20,14,45,11.90
2007,04,20,14,46,11.90
2007,04,20,14,47,12.00
2007,04,20,14,48,12.00
2007,04,20,14,49,12.10
2007,04,20,14,50,12.10
2007,04,20,14,51,12.10
2007,04,20,14,52,12.20
2007,04,20,14,53,12.30
2007,04,20,14,54,12.40
2007,04,20,14,55,12.30
2007,04,20,14,56,12.30
2007,04,20,14,57,12.20
2007,04,20,14,58,12.10
2007,04,20,14,59,12.00
2007,04,20,15,00,11.90
2007,04,20,15,01,11.80
2007,04,20,15,02,11.70
2007,04,20,15,03,11.70
2007,04,20,15,04,11.60
2007,04,20,15,05,11.50
2007,04,20,15,06,11.40
2007,04,20,15,07,11.40
2007,04,20,15,08,11.50
2007,04,20,15,09,11.50
2007,04,20,15,10,11.50
2007,04,20,15,11,11.50
2007,04,20,15,12,11.60
2007,04,20,15,13,11.70
2007,04,20,15,14,11.80
2007,04,20,15,15,11.80
2007,04,20,15,16,11.70
2007,04,20,15,17,11.70
2007,04,20,15,18,11.70
2007,04,20,15,19,11.60
2007,04,20,15,20,11.60
2007,04,20,15,21,11.70
2007,04,20,15,22,11.70
2007,04,20,15,23,11.70
2007,04,20,15,24,11.70
2007,04,20,15,25,11.70
2007,04,20,15,26,11.70
2007,04,20,15,27,11.70
2007,04,20,15,28,11.70
2007,04,20,15,29,11.80
2007,04,20,15,30,11.80
2007,04,20,15,31,11.80
2007,04,20,15,32,11.80
2007,04,20,15,33,11.80
2007,04,20,15,34,11.80
2007,04,20,15,35,11.80
2007,04,20,15,36,11.80
2007,04,20,15,37,11.90
2007,04,20,15,38,11.90
2007,04,20,15,39,11.80
2007,04,20,15,40,11.90
2007,04,20,15,41,11.90
2007,04,20,15,42,11.90
2007,04,20,15,43,12.00
2007,04,20,15,44,12.00
2007,04,20,15,45,12.00
2007,04,20,15,46,12.00
2007,04,20,15,47,12.10
2007,04,20,15,48,12.20
2007,04,20,15,49,12.30
2007,04,20,15,50,12.40
2007,04,20,15,51,12.50
2007,04,20,15,52,12.50
2007,04,20,15,53,12.50
2007,04,20,15,54,12.50
2007,04,20,15,55,12.50
2007,04,20,15,56,12.50
2007,04,20,15,57,12.40
2007,04,20,15,58,12.50
2007,04,20,15,59,12.50
2007,04,20,16,00,12.60
2007,04,20,16,01,12.60
2007,04,20,16,02,12.60
2007,04,20,16,03,12.60
2007,04,20,16,04,12.70
2007,04,20,16,05,12.80
2007,04,20,16,06,12.70
2007,04,20,16,07,12.70
2007,04,20,16,08,12.70
2007,04,20,16,09,12.70
2007,04,20,16,10,12.60
2007,04,20,16,11,12.40
2007,04,20,16,12,12.40
2007,04,20,16,13,12.40
2007,04,20,16,14,12.40
2007,04,20,16,15,12.40
2007,04,20,16,16,12.40
2007,04,20,16,17,12.40
2007,04,20,16,18,12.40
2007,04,20,16,19,12.50
2007,04,20,16,20,12.50
2007,04,20,16,21,12.50
2007,04,20,16,22,12.50
2007,04,20,16,23,12.60
2007,04,20,16,24,12.70
2007,04,20,16,25,12.70
2007,04,20,16,26,12.70
2007,04,20,16,27,12.70
2007,04,20,16,28,12.80
2007,04,20,16,29,12.70
2007,04,20,16,30,12.70
2007,04,20,16,31,12.80
2007,04,20,16,32,12.90
2007,04,20,16,33,12.90
2007,04,20,16,34,12.90
2007,04,20,16,35,12.90
2007,04,20,16,36,12.90
2007,04,20,16,37,12.80
2007,04,20,16,38,12.80
2007,04,20,16,39,12.80
2007,04,20,16,40,12.80
2007,04,20,16,41,12.80
2007,04,20,16,42,12.80
2007,04,20,16,43,12.90
2007,04,20,16,44,12.80
2007,04,20,16,45,12.80
2007,04,20,16,46,12.80
2007,04,20,16,47,12.80
2007,04,20,16,48,12.80
2007,04,20,16,49,12.80
2007,04,20,16,50,12.90
2007,04,20,16,51,12.90
2007,04,20,16,52,12.90
2007,04,20,16,53,12.90
2007,04,20,16,54,12.80
2007,04,20,16,55,12.70
2007,04,20,16,56,12.70
2007,04,20,16,57,12.70
2007,04,20,16,58,12.60
2007,04,20,16,59,12.50
2007,04,20,17,00,12.30
2007,04,20,17,01,12.30
2007,04,20,17,02,12.40
2007,04,20,17,03,12.40
2007,04,20,17,04,12.50
2007,04,20,17,05,12.50
2007,04,20,17,06,12.50
2007,04,20,17,07,12.60
2007,04,20,17,08,12.70
2007,04,20,17,09,12.70
2007,04,20,17,10,12.70
2007,04,20,17,11,12.80
2007,04,20,17,12,12.80
2007,04,20,17,13,12.80
2007,04,20,17,14,12.80
2007,04,20,17,15,12.90
2007,04,20,17,16,12.90
2007,04,20,17,17,13.00
2007,04,20,17,18,13.00
2007,04,20,17,19,12.90
2007,04,20,17,20,12.80
2007,04,20,17,21,12.90
2007,04,20,17,22,12.90
2007,04,20,17,23,12.90
2007,04,20,17,24,12.90
2007,04,20,17,25,12.90
2007,04,20,17,26,12.80
2007,04,20,17,27,12.80
2007,04,20,17,28,12.80
2007,04,20,17,29,12.80
2007,04,20,17,30,12.70
2007,04,20,17,31,12.70
2007,04,20,17,32,12.60
2007,04,20,17,33,12.60
2007,04,20,17,34,12.50
2007,04,20,17,35,12.50
2007,04,20,17,36,12.40
2007,04,20,17,37,12.40
2007,04,20,17,38,12.50
2007,04,20,17,39,12.60
2007,04,20,17,40,12.70
2007,04,20,17,41,12.70
2007,04,20,17,42,12.70
2007,04,20,17,43,12.60
2007,04,20,17,44,12.60
2007,04,20,17,45,12.60
2007,04,20,17,46,12.50
2007,04,20,17,47,12.50